#timestamp,LO_Frequency,Hit,StdDev 
1538294415.3,286047000.6,N
1538294435.1,286047000.4,N
1538294455.9,286047000.9,N
1538294475.7,286046999.7,N
1538294495.6,286047002.2,N
1538294515.4,286047001.8,N
1538294535.2,286047001.3,N
1538294555.1,286047004.4,Y
1538294556.0,286047004.4,P
1538294575.8,286047001.8,N
1538294595.6,286047001.4,N
1538294615.5,286047004.1,Y
1538294635.3,286047000.4,P
1538294655.2,286047000.5,N
1538294675.9,286047000.1,N
1538294695.7,286047002.8,Y
1538294715.6,286046999.9,P
1538294735.4,286047000.2,N
1538294755.2,286047002.7,P
1538294775.1,286047002.8,N
1538294776.0,286047002.8,N
1538294795.8,286046999.7,N
1538294815.7,286047002.3,N
1538294835.5,286047002.7,N
1538294855.3,286047002.1,N
1538294875.2,286047002.0,N
1538294895.0,286047001.7,N
1538294895.9,286047001.7,N
1538294915.7,286047004.2,Y
1538294935.6,286047002.0,P
1538294955.4,286047001.8,P
1538294975.3,286047001.6,P
1538294995.1,286047001.7,Y
1538294996.0,286047001.7,P
1538295015.8,286047002.3,P
1538295035.7,286047002.7,P
1538295055.5,286046999.8,N
1538295075.3,286047002.2,N
1538295095.2,286047002.0,N
1538295115.0,286047002.1,N
1538295115.9,286047002.1,N
1538295135.8,286047002.0,N
1538295155.6,286047001.8,N
1538295175.4,286047001.8,N
1538295195.3,286047003.9,Y
1538295215.1,286047002.1,P
1538295235.9,286047002.4,P
1538295255.7,286047001.9,P
1538295275.5,286047001.9,Y
1538295295.4,286047000.1,P
1538295315.2,286047000.9,N
1538295335.0,286047000.5,N
1538295335.9,286047000.5,N
1538295355.8,286046999.9,N
1538295375.6,286047000.6,N
1538295395.5,286047000.9,N
1538295415.3,286047001.2,N
1538295435.1,286047000.8,N
1538295455.9,286047000.6,N
1538295475.7,286047000.1,N
1538295495.5,286047002.3,Y
1538295515.4,286047000.3,P
1538295535.2,286047000.2,N
1538295555.1,286046999.8,N
1538295556.0,286046999.8,N
1538295575.8,286046999.8,N
1538295595.6,286047000.2,N
1538295615.5,286047000.2,N
1538295635.3,286047000.2,N
1538295655.1,286047000.0,N
1538295675.9,286047002.6,Y
1538295695.7,286047002.8,P
1538295715.6,286047002.6,N
1538295735.4,286047001.3,N
1538295755.2,286047001.7,N
1538295775.1,286047004.3,Y
1538295776.0,286047004.3,P
1538295795.8,286047002.7,N
1538295815.6,286046999.7,N
1538295835.5,286047000.5,N
1538295855.3,286047000.2,N
1538295875.2,286047000.1,N
1538295895.9,286047000.3,N
1538295915.7,286047000.9,N
1538295935.6,286047000.6,N
1538295955.4,286047000.6,N
1538295975.2,286047000.8,N
1538295995.1,286047001.0,N
1538295996.0,286047001.0,N
1538296015.8,286047000.0,N
1538296035.7,286047000.9,N
1538296055.5,286047001.1,N
1538296075.3,286047001.2,N
1538296095.2,286047001.2,N
1538296115.0,286046998.2,N
1538296115.9,286046998.2,N
1538296135.7,286047000.8,N
1538296155.6,286047000.9,N
1538296175.4,286047000.5,N
1538296195.3,286047000.9,N
1538296215.1,286047000.7,N
1538296216.0,286047000.7,N
1538296235.8,286047000.2,N
1538296255.7,286047002.8,N
1538296275.5,286047000.2,N
1538296295.3,286047000.2,N
1538296315.2,286046999.8,N
1538296335.0,286047002.7,N
1538296335.9,286047002.7,N
1538296355.8,286047002.1,N
1538296375.6,286047002.2,N
1538296395.4,286047004.4,Y
1538296415.3,286046999.9,P
1538296435.1,286047002.1,P
1538296455.8,286047001.9,N
1538296475.7,286047001.5,N
1538296495.5,286047002.0,N
1538296515.4,286047001.4,N
1538296535.2,286047003.9,Y
1538296555.0,286047001.7,P
1538296555.9,286047001.7,P
1538296575.8,286047002.7,P
1538296595.6,286047000.1,N
1538296615.4,286047002.8,Y
1538296635.3,286047001.0,P
1538296655.1,286047001.0,P
1538296675.9,286047000.0,N
1538296695.7,286046999.9,N
1538296715.5,286047000.5,N
1538296735.4,286047000.6,N
1538296755.2,286047000.6,N
1538296775.0,286047000.5,N
1538296775.9,286047000.5,N
1538296795.8,286047000.7,N
1538296815.6,286046999.9,N
1538296835.5,286047000.6,N
1538296855.3,286047001.2,N
1538296875.1,286046998.5,Y
1538296895.9,286046999.3,P
1538296915.7,286046998.4,N
1538296935.5,286046999.2,N
1538296955.4,286046999.2,N
1538296975.2,286046997.2,Y
1538296995.1,286046997.0,P
1538296996.0,286046997.0,N
1538297015.8,286046997.4,N
1538297035.6,286046994.9,Y
1538297055.5,286046999.2,P
1538297075.3,286046997.8,N
1538297095.1,286046995.0,P
1538297115.9,286046994.9,Y
1538297135.7,286046999.2,P
1538297155.6,286046997.0,P
1538297175.4,286046994.9,P
1538297195.2,286046995.0,Y
1538297215.1,286046998.7,P
1538297216.0,286046998.7,N
1538297235.8,286046998.4,N
1538297255.7,286046999.3,N
1538297275.5,286046997.3,Y
1538297295.3,286046999.6,P
1538297315.2,286046997.6,P
1538297335.0,286046996.0,P
1538297335.9,286046996.0,Y
1538297355.8,286046994.9,P
1538297375.6,286046996.2,N
1538297395.4,286046993.6,P
1538297415.3,286046994.3,Y
1538297435.1,286046996.8,P
1538297455.9,286046994.9,P
1538297475.7,286046995.2,P
1538297495.5,286046996.0,Y
1538297515.4,286046996.5,P
1538297535.2,286046997.5,P
1538297555.0,286046993.3,P
1538297556.0,286046993.3,Y
1538297575.8,286046998.1,P
1538297595.6,286046996.8,N
1538297615.5,286046997.9,N
1538297635.3,286046995.9,Y
1538297655.1,286046997.4,P
1538297675.9,286046995.7,P
1538297695.7,286046993.6,P
1538297715.6,286046992.5,Y
1538297735.4,286046995.9,P
1538297755.2,286046994.5,P
1538297775.1,286046993.2,P
1538297776.0,286046993.2,Y
1538297795.8,286046995.0,P
1538297815.7,286046993.4,P
1538297835.5,286046991.8,P
1538297855.3,286046993.0,Y
1538297875.2,286046994.9,P
1538297895.0,286046993.9,P
1538297895.9,286046993.9,P
1538297915.8,286046994.8,Y
1538297935.6,286046997.0,P
1538297955.4,286046996.3,N
1538297975.3,286046993.4,P
1538297995.1,286046992.6,Y
